Location: L'Union
(43.6635°N, 1.4699°E)
Time: 14:11:42
(UTC+02:00)

N. Korean satellite - Visible Passes

Search period start: 30 September 2022 00:00
Search period end: 10 October 2022 00:00
Orbit: 427 x 468 km, 97.3° (Epoch: 29 September)

Date Brightness Start Highest point End Pass type
(mag) Time Alt. Az. Time Alt. Az. Time Alt. Az.
01 Oct 7.8 06:52:38 10° NNE 06:55:46 41° E 06:58:52 10° S visible
02 Oct 9.6 06:17:55 10° ENE 06:19:47 14° E 06:21:38 10° SE visible
03 Oct 6.3 07:13:33 10° NNE 07:16:50 86° E 07:20:05 10° SSW visible
04 Oct 8.8 06:38:04 10° NE 06:40:53 26° E 06:43:40 10° SSE visible
06 Oct 7.3 06:58:33 10° NNE 07:01:46 50° E 07:04:57 10° S visible
07 Oct 9.5 06:23:24 10° NE 06:25:38 17° E 06:27:50 10° SE visible
08 Oct 6.2 07:19:09 10° N 07:22:26 79° WNW 07:25:42 10° SSW visible
09 Oct 8.4 06:43:22 10° NNE 06:46:19 30° E 06:49:16 10° SSE visible
